When you browse on this site, cookies collect data to enhance your experience and personalize the content and advertising you see.
Visit our Privacy Policy to learn more. By continuing to use the site, you agree to this use of cookies and data.
  • In Österreich
  • Länderverzeichnis
  • Für 7 Tage
  • Wassertemperatur
  • Wetterkarte
  • News
  • Widgets
  • user-avatar
    Anmelden

    Stündliche Wetter Zorya

    Heute, 28 Januar, Dienstag

    Zeit Temperatur Niederschläge Wind Luftdruck Luftfeuchtigkeit
    00:00 +2°C° 0 mm 1 m/S 751 mmHg 85%
    01:00 +2°C° 0 mm 1 m/S 750 mmHg 85%
    02:00 +2°C° 0 mm 1 m/S 750 mmHg 85%
    03:00 +2°C° 0 mm 1 m/S 750 mmHg 85%
    04:00 +2°C° 0 mm 1 m/S 750 mmHg 85%
    05:00 +1°C° 0 mm 2 m/S 749 mmHg 85%
    06:00 +2°C° 0 mm 1 m/S 749 mmHg 84%
    07:00 +2°C° 0 mm 1 m/S 749 mmHg 83%
    08:00 +2°C° 0 mm 1 m/S 749 mmHg 82%
    09:00 +3°C° 0 mm 1 m/S 749 mmHg 77%
    10:00 +3°C° 0 mm 2 m/S 749 mmHg 72%
    11:00 +4°C° 0 mm 2 m/S 749 mmHg 67%
    12:00 +4°C° 0 mm 2 m/S 749 mmHg 69%
    13:00 +5°C° 0 mm 2 m/S 748 mmHg 70%
    14:00 +4°C° 0 mm 3 m/S 747 mmHg 72%
    15:00 +3°C° 0 mm 3 m/S 747 mmHg 78%
    16:00 +2°C° 0 mm 3 m/S 747 mmHg 85%
    17:00 +2°C° 0 mm 3 m/S 747 mmHg 91%
    18:00 +2°C° 0 mm 3 m/S 747 mmHg 93%
    19:00 +3°C° 0 mm 2 m/S 747 mmHg 95%
    20:00 +3°C° 0 mm 2 m/S 746 mmHg 96%
    21:00 +2°C° 0 mm 3 m/S 746 mmHg 97%
    22:00 +2°C° 0 mm 3 m/S 746 mmHg 97%
    23:00 +2°C° 0 mm 3 m/S 745 mmHg 98%

    Morgen, 29 Januar, Mittwoch

    Zeit Temperatur Niederschläge Wind Luftdruck Luftfeuchtigkeit
    00:00 +2°C° 0 mm 3 m/S 745 mmHg 98%
    01:00 +2°C° 0 mm 3 m/S 744 mmHg 98%
    02:00 +2°C° 0 mm 3 m/S 744 mmHg 98%
    03:00 +3°C° 0 mm 3 m/S 743 mmHg 98%
    04:00 +3°C° 0 mm 3 m/S 743 mmHg 98%
    05:00 +4°C° 0 mm 2 m/S 742 mmHg 98%
    06:00 +3°C° 0 mm 3 m/S 742 mmHg 98%
    07:00 +3°C° 0 mm 4 m/S 742 mmHg 98%
    08:00 +3°C° 0 mm 4 m/S 741 mmHg 97%
    09:00 +3°C° 0 mm 5 m/S 741 mmHg 95%
    10:00 +3°C° 0 mm 6 m/S 740 mmHg 93%
    11:00 +4°C° 0 mm 7 m/S 740 mmHg 91%
    12:00 +4°C° 0 mm 7 m/S 739 mmHg 88%
    13:00 +4°C° 0 mm 7 m/S 739 mmHg 85%
    14:00 +5°C° 0 mm 7 m/S 738 mmHg 82%
    15:00 +4°C° 0.4 mm 7 m/S 738 mmHg 83%
    16:00 +4°C° 0.4 mm 7 m/S 738 mmHg 85%
    17:00 +3°C° 0.4 mm 7 m/S 738 mmHg 86%
    18:00 +2°C° 0.1 mm 7 m/S 738 mmHg 83%
    19:00 0°C° 0.1 mm 7 m/S 739 mmHg 79%
    20:00 0°C° 0.1 mm 8 m/S 739 mmHg 76%
    21:00 -1°C° 0 mm 7 m/S 739 mmHg 74%
    22:00 -1°C° 0 mm 7 m/S 740 mmHg 73%
    23:00 -1°C° 0 mm 7 m/S 740 mmHg 71%

    übermorgen, 30 Januar, Donnerstag

    Zeit Temperatur Niederschläge Wind Luftdruck Luftfeuchtigkeit
    00:00 -2°C° 0 mm 6 m/S 741 mmHg 73%
    01:00 -2°C° 0 mm 6 m/S 741 mmHg 74%
    02:00 -2°C° 0 mm 6 m/S 741 mmHg 76%
    03:00 -2°C° 0 mm 7 m/S 740 mmHg 79%
    04:00 -2°C° 0 mm 8 m/S 740 mmHg 83%
    05:00 -3°C° 0 mm 9 m/S 740 mmHg 86%
    06:00 -3°C° 0 mm 9 m/S 740 mmHg 86%
    07:00 -1°C° 0 mm 9 m/S 740 mmHg 85%
    08:00 -1°C° 0 mm 9 m/S 741 mmHg 84%
    09:00 -1°C° 0 mm 9 m/S 741 mmHg 78%
    10:00 0°C° 0 mm 9 m/S 741 mmHg 73%
    11:00 +1°C° 0 mm 10 m/S 741 mmHg 67%
    12:00 +1°C° 0 mm 10 m/S 741 mmHg 66%
    13:00 +1°C° 0 mm 10 m/S 741 mmHg 65%
    14:00 +1°C° 0 mm 10 m/S 741 mmHg 64%
    15:00 +1°C° 0 mm 10 m/S 741 mmHg 67%
    16:00 0°C° 0 mm 10 m/S 740 mmHg 71%
    17:00 0°C° 0 mm 9 m/S 740 mmHg 74%
    18:00 0°C° 0.2 mm 10 m/S 740 mmHg 80%
    19:00 -2°C° 0.2 mm 10 m/S 740 mmHg 86%
    20:00 -2°C° 0.2 mm 11 m/S 740 mmHg 92%
    21:00 -2°C° 0.5 mm 10 m/S 741 mmHg 93%
    22:00 -2°C° 0.5 mm 10 m/S 741 mmHg 94%
    23:00 -3°C° 0.5 mm 10 m/S 741 mmHg 95%

    31 Januar, Freitag

    Zeit Temperatur Niederschläge Wind Luftdruck Luftfeuchtigkeit
    00:00 -3°C° 0.4 mm 9 m/S 741 mmHg 95%
    01:00 -3°C° 0.4 mm 9 m/S 742 mmHg 95%
    02:00 -2°C° 0.4 mm 8 m/S 742 mmHg 95%
    03:00 -2°C° 0.1 mm 8 m/S 743 mmHg 94%
    04:00 -1°C° 0.1 mm 8 m/S 743 mmHg 93%
    05:00 -1°C° 0.1 mm 8 m/S 743 mmHg 92%
    06:00 -2°C° 0 mm 8 m/S 744 mmHg 90%
    07:00 -2°C° 0 mm 8 m/S 744 mmHg 87%
    08:00 -2°C° 0 mm 7 m/S 745 mmHg 84%
    09:00 -2°C° 0 mm 7 m/S 745 mmHg 80%
    10:00 -2°C° 0 mm 7 m/S 745 mmHg 77%
    11:00 -1°C° 0 mm 7 m/S 745 mmHg 74%
    12:00 -1°C° 0 mm 6 m/S 745 mmHg 72%
    13:00 -1°C° 0 mm 6 m/S 745 mmHg 71%
    14:00 +1°C° 0 mm 6 m/S 745 mmHg 69%
    15:00 +1°C° 0 mm 5 m/S 745 mmHg 72%
    16:00 0°C° 0 mm 4 m/S 745 mmHg 75%
    17:00 +1°C° 0 mm 3 m/S 745 mmHg 78%
    18:00 +1°C° 0 mm 3 m/S 744 mmHg 78%
    19:00 +1°C° 0 mm 3 m/S 744 mmHg 78%
    20:00 +2°C° 0 mm 2 m/S 744 mmHg 78%
    21:00 +1°C° 0 mm 3 m/S 744 mmHg 80%
    22:00 +1°C° 0 mm 3 m/S 744 mmHg 81%
    23:00 0°C° 0 mm 3 m/S 743 mmHg 82%

    1 Februar, Samstag

    Zeit Temperatur Niederschläge Wind Luftdruck Luftfeuchtigkeit
    00:00 +1°C° 0.1 mm 2 m/S 743 mmHg 87%
    01:00 +1°C° 0.1 mm 2 m/S 744 mmHg 92%
    02:00 +1°C° 0.1 mm 2 m/S 744 mmHg 97%
    03:00 +1°C° 0 mm 2 m/S 744 mmHg 97%
    04:00 +2°C° 0 mm 1 m/S 744 mmHg 97%
    05:00 +2°C° 0 mm 1 m/S 744 mmHg 97%
    06:00 +2°C° 0 mm 1 m/S 744 mmHg 97%
    07:00 +2°C° 0 mm 2 m/S 744 mmHg 97%
    08:00 +2°C° 0 mm 2 m/S 745 mmHg 97%
    09:00 +2°C° 0 mm 2 m/S 745 mmHg 96%
    10:00 +2°C° 0 mm 2 m/S 746 mmHg 95%
    11:00 +3°C° 0 mm 2 m/S 746 mmHg 94%
    12:00 +3°C° 0 mm 2 m/S 746 mmHg 90%
    13:00 +4°C° 0 mm 2 m/S 746 mmHg 86%
    14:00 +3°C° 0 mm 3 m/S 746 mmHg 82%
    15:00 +3°C° 0 mm 3 m/S 746 mmHg 84%
    16:00 +3°C° 0 mm 3 m/S 746 mmHg 85%
    17:00 +3°C° 0 mm 3 m/S 746 mmHg 87%
    18:00 +3°C° 0 mm 3 m/S 747 mmHg 87%
    19:00 +3°C° 0 mm 3 m/S 747 mmHg 88%
    20:00 +3°C° 0 mm 3 m/S 747 mmHg 88%
    21:00 +3°C° 0 mm 3 m/S 747 mmHg 88%
    22:00 +3°C° 0 mm 3 m/S 747 mmHg 89%
    23:00 +3°C° 0 mm 3 m/S 747 mmHg 89%

    2 Februar, Sonntag

    Zeit Temperatur Niederschläge Wind Luftdruck Luftfeuchtigkeit
    00:00 +3°C° 0 mm 3 m/S 747 mmHg 90%
    01:00 +4°C° 0 mm 3 m/S 747 mmHg 90%
    02:00 +4°C° 0 mm 4 m/S 746 mmHg 91%
    03:00 +4°C° 0 mm 4 m/S 746 mmHg 90%
    04:00 +4°C° 0 mm 4 m/S 746 mmHg 90%
    05:00 +4°C° 0 mm 4 m/S 745 mmHg 90%
    06:00 +3°C° 0 mm 5 m/S 745 mmHg 88%
    07:00 +3°C° 0 mm 5 m/S 744 mmHg 87%
    08:00 +3°C° 0 mm 5 m/S 744 mmHg 86%
    09:00 +3°C° 0.4 mm 6 m/S 744 mmHg 87%
    10:00 +4°C° 0.4 mm 6 m/S 743 mmHg 89%
    11:00 +4°C° 0.4 mm 7 m/S 743 mmHg 90%
    12:00 +5°C° 0.1 mm 7 m/S 743 mmHg 83%
    13:00 +6°C° 0.1 mm 8 m/S 743 mmHg 75%
    14:00 +7°C° 0.1 mm 8 m/S 743 mmHg 68%
    15:00 +6°C° 0 mm 8 m/S 743 mmHg 69%
    16:00 +6°C° 0 mm 7 m/S 743 mmHg 70%
    17:00 +5°C° 0 mm 6 m/S 743 mmHg 71%
    18:00 +4°C° 0 mm 6 m/S 744 mmHg 73%
    19:00 +3°C° 0 mm 6 m/S 744 mmHg 75%
    20:00 +3°C° 0 mm 5 m/S 744 mmHg 76%
    21:00 +2°C° 0 mm 5 m/S 744 mmHg 76%
    22:00 +2°C° 0 mm 5 m/S 744 mmHg 77%
    23:00 +1°C° 0 mm 4 m/S 744 mmHg 77%
    Mehr zeigen